Stations météo

réclame
Mon MeteoGroup
Drumnadrochit, Grande-Bretagne (99132): Température de l'air & dewpoint: 12.06.2018 14:00:00 - 18.06.2018 14:00:00 (BST)Drumnadrochit, Grande-Bretagne (99132): Quantités de précipitations: 12.06.2018 14:00:00 - 18.06.2018 14:00:00 (BST)
Date & Time tt [°C] td [°C] rr [mm]
18.06.2018 14:00:00 14,7 6,5 0,0
18.06.2018 13:00:00 14,3 4,8 0,0
18.06.2018 12:00:00 13,5 6,4 0,0
18.06.2018 11:00:00 12,9 6,4 0,0
18.06.2018 10:00:00 13,7 6,7 0,0
18.06.2018 09:00:00 12,3 6,6 0,0
18.06.2018 08:00:00 12,1 6,6 0,0
18.06.2018 07:00:00 12,0 4,9 0,0
18.06.2018 06:00:00 11,5 6,4 0,0
18.06.2018 05:00:00 11,1 7,0 0,0
18.06.2018 04:00:00 11,3 7,5 0,0
18.06.2018 03:00:00 11,8 7,7 0,0
18.06.2018 02:00:00 12,3 8,3 0,0
18.06.2018 01:00:00 13,0 9,3 0,0
18.06.2018 00:00:00 13,7 10,3 0,0
17.06.2018 23:00:00 13,6 11,2 0,0
17.06.2018 22:00:00 13,3 11,2 0,0
17.06.2018 21:00:00 13,6 10,8 0,0
17.06.2018 20:00:00 13,7 10,1 0,0
17.06.2018 19:00:00 14,3 9,4 0,0
17.06.2018 18:00:00 14,4 9,8 0,0
17.06.2018 17:00:00 15,2 9,3 0,0
17.06.2018 16:00:00 15,9 8,2 0,0
17.06.2018 15:00:00 17,2 8,7 0,0
17.06.2018 14:00:00 15,8 8,6 0,0
17.06.2018 13:00:00 15,0 9,1 0,0
17.06.2018 12:00:00 14,1 9,2 0,0
17.06.2018 11:00:00 13,3 9,1 0,0
17.06.2018 10:00:00 12,7 8,3 0,0
17.06.2018 09:00:00 12,2 8,0 0,0
17.06.2018 08:00:00 12,0 8,9 0,0
17.06.2018 07:00:00 9,6 8,5 0,0
17.06.2018 06:00:00 6,9 6,9 0,0
17.06.2018 05:00:00 4,8 4,4 0,0
17.06.2018 04:00:00 6,5 5,7 0,0
17.06.2018 03:00:00 7,8 6,0 0,0
17.06.2018 02:00:00 8,1 7,4 0,0
17.06.2018 01:00:00 9,4 9,0 0,0
17.06.2018 00:00:00 9,7 9,2 0,0
16.06.2018 23:00:00 10,1 9,3 0,0
16.06.2018 22:00:00 11,4 8,4 0,0
16.06.2018 21:00:00 11,4 10,0 0,0
16.06.2018 20:00:00 12,1 9,4 0,0
16.06.2018 19:00:00 12,7 9,6 0,0
16.06.2018 18:00:00 12,4 9,7 0,0
16.06.2018 17:00:00 11,1 9,4 2,0
16.06.2018 16:00:00 13,4 9,8 0,4
16.06.2018 15:00:00 14,0 9,2 0,0
16.06.2018 14:00:00 13,7 11,1 0,4
16.06.2018 13:00:00 12,3 10,8 0,8
16.06.2018 12:00:00 12,3 11,1 1,4
16.06.2018 11:00:00 12,2 10,8 0,4
16.06.2018 10:00:00 12,1 10,3 0,8
16.06.2018 09:00:00 12,4 8,8 0,2
16.06.2018 08:00:00 11,4 9,3 0,0
16.06.2018 07:00:00 10,7 8,6 0,0
16.06.2018 06:00:00 9,4 8,7 0,0
16.06.2018 05:00:00 7,0 6,6 0,0
16.06.2018 04:00:00 8,1 7,5 0,0
16.06.2018 03:00:00 6,7 5,5 0,0
16.06.2018 02:00:00 8,7 7,6 0,0
16.06.2018 01:00:00 8,4 6,1 0,0
16.06.2018 00:00:00 9,6 6,9 0,0
15.06.2018 23:00:00 9,8 6,4 0,0
15.06.2018 22:00:00 10,7 6,9 0,0
15.06.2018 21:00:00 11,7 7,5 0,0
15.06.2018 20:00:00 12,7 7,7 0,0
15.06.2018 19:00:00 14,5 6,7 0,0
15.06.2018 18:00:00 14,5 7,4 0,0
15.06.2018 17:00:00 15,0 7,1 0,0
15.06.2018 16:00:00 15,4 8,6 0,0
15.06.2018 15:00:00 16,1 7,2 0,0
15.06.2018 14:00:00 14,7 6,7 0,0
15.06.2018 13:00:00 15,6 6,7 0,0
15.06.2018 12:00:00 15,3 6,8 0,0
15.06.2018 11:00:00 14,8 7,2 0,0
15.06.2018 10:00:00 13,7 7,9 0,0
15.06.2018 09:00:00 11,6 7,1 0,0
15.06.2018 08:00:00 12,2 7,8 0,0
15.06.2018 07:00:00 10,6 8,0 0,0
15.06.2018 06:00:00 9,8 7,8 0,0
15.06.2018 05:00:00 9,6 6,7 0,0
15.06.2018 04:00:00 10,0 6,7 0,0
15.06.2018 03:00:00 9,9 7,0 0,0
15.06.2018 02:00:00 9,2 6,0 0,0
15.06.2018 01:00:00 9,0 6,4 0,0
15.06.2018 00:00:00 8,6 5,6 0,0
14.06.2018 23:00:00 9,6 5,9 0,0
14.06.2018 22:00:00 10,1 5,4 0,0
14.06.2018 21:00:00 10,3 6,2 0,0
14.06.2018 20:00:00 11,2 6,1 0,2
14.06.2018 19:00:00 10,8 7,4 0,8
14.06.2018 18:00:00 11,2 6,4 0,2
14.06.2018 17:00:00 11,0 6,5 0,6
14.06.2018 16:00:00 11,5 7,5 0,6
14.06.2018 15:00:00 13,0 6,6 0,0
14.06.2018 14:00:00 13,9 7,6 0,0
14.06.2018 13:00:00 13,1 9,0 0,2
14.06.2018 12:00:00 12,5 9,8 1,0
14.06.2018 11:00:00 12,6 9,9 0,8
14.06.2018 10:00:00 13,4 10,2 1,4
14.06.2018 09:00:00 14,9 11,5 0,0
14.06.2018 08:00:00 15,5 10,0 0,0
14.06.2018 07:00:00 15,2 10,0 0,0
14.06.2018 06:00:00 15,7 10,9 0,0
14.06.2018 05:00:00 16,2 12,1 1,0
14.06.2018 04:00:00 15,9 13,5 0,6
14.06.2018 03:00:00 15,7 13,3 0,2
14.06.2018 02:00:00 14,6 13,4 0,6
14.06.2018 01:00:00 14,2 12,7 0,8
14.06.2018 00:00:00 12,7 12,2 0,4
13.06.2018 23:00:00 12,6 11,7 0,6
13.06.2018 22:00:00 13,4 10,9 0,2
13.06.2018 21:00:00 14,2 10,3 0,0
13.06.2018 20:00:00 14,7 10,4 0,0
13.06.2018 19:00:00 15,6 10,3 0,0
13.06.2018 18:00:00 15,5 10,3 0,0
13.06.2018 17:00:00 14,9 10,0 0,0
13.06.2018 16:00:00 13,9 9,7 0,0
13.06.2018 15:00:00 13,3 9,4 0,0
13.06.2018 14:00:00 14,3 8,0 0,0
13.06.2018 13:00:00 14,3 7,1 0,0
13.06.2018 12:00:00 13,3 6,3 0,0
13.06.2018 11:00:00 12,9 5,5 0,0
13.06.2018 10:00:00 13,6 6,3 0,0
13.06.2018 09:00:00 13,1 6,9 0,0
13.06.2018 08:00:00 11,3 5,9 0,0
13.06.2018 07:00:00 10,7 6,4 0,0
13.06.2018 06:00:00 9,6 7,1 0,0
13.06.2018 05:00:00 9,0 7,0 0,0
13.06.2018 04:00:00 8,9 6,8 0,0
13.06.2018 03:00:00 7,5 6,0 0,0
13.06.2018 02:00:00 9,1 6,9 0,0
13.06.2018 01:00:00 8,8 6,8 0,0
13.06.2018 00:00:00 8,1 4,6 0,0
12.06.2018 23:00:00 11,6 6,1 0,0
12.06.2018 22:00:00 12,4 6,2 0,0
12.06.2018 21:00:00 14,1 5,7 0,0
12.06.2018 20:00:00 14,4 6,2 0,0
12.06.2018 19:00:00 15,0 6,3 0,0
12.06.2018 18:00:00 15,6 6,9 0,0
12.06.2018 17:00:00 15,9 7,1 0,0
12.06.2018 16:00:00 15,2 7,5 0,0
12.06.2018 15:00:00 15,0 8,1 0,0
12.06.2018 14:00:00 15,0 7,9 0,0

tt = Température de l'air
td = dewpoint
rr = Quantités de précipitations

stations d'obs. à proximité